Regional Weather Roundup
Issued by NWS

Home | Current Version | Previous Version | Graphics & Text | Print | Product List | Glossary Off
Versions: 1 2 3 4 5 6 7 8 9 10 11 12 13 14 15 16 17 18 19 20 21 22 23 24 25 26 27 28 29 30 31 32 33 34 35 36 37 38 39 40 41 42 43 44 45 46 47 48 49 50

000
ASUS43 KMPX 251110
RWRMN
WEATHER ROUNDUP FOR MINNESOTA
NATIONAL WEATHER SERVICE TWIN CITIES/CHANHASSEN MN
600 AM CDT SUN JUN 25 2017


NOTE: "FAIR" INDICATES FEW OR NO CLOUDS BELOW 12,000 FEET WITH NO
SIGNIFICANT WEATHER AND/OR OBSTRUCTIONS TO VISIBILITY. N/A MEANS
CURRENT SKY AND/OR WEATHER CONDITIONS ARE NOT AVAILABLE.

MNZ060>063-068>070-251200-
   Twin Cities Metro

CITY           SKY/WX    TMP DP  RH WIND       PRES   REMARKS
TWIN CITIES    CLOUDY    55  48  77 NW17      30.10R
ST PAUL        CLOUDY    55  48  77 NW13      30.10R
CRYSTAL        CLOUDY    54  46  74 NW9       30.09R
BLAINE         CLOUDY    55  48  76 NW13      30.09R
LAKEVILLE      CLOUDY    54  48  82 W9G17     30.10R
EDEN PRAIRIE   CLOUDY    56  47  71 W9        30.10R
SOUTH ST PAUL  CLOUDY    56  47  73 NW8       30.09R
LAKE ELMO      CLOUDY    54  48  82 W10       30.09R
$$
MNZ001>005-007-008-013>017-022>024-027-028-251200-
   Northwest Minnesota

CITY           SKY/WX    TMP DP  RH WIND       PRES   REMARKS
BEMIDJI        CLOUDY    48  47  94 NW10      30.13R
HALLOCK        CLEAR     39  39 100 NW7       30.20R
ROSEAU         PTCLDY    45  39  81 NW6       30.16R
WARROAD        CLOUDY    48  45  87 NW6       30.15R
THIEF RVR FALL CLEAR     44  42  93 NW10      30.19R
CROOKSTON      CLEAR     41  39  93 NW5       30.21R
FOSSTON        MOCLDY    46  45  93 NW8       30.17R
DETROIT LAKES  CLOUDY    46  45  93 NW12      30.19R
MOORHEAD       CLEAR     45  41  87 NW7       30.22R
PARK RAPIDS    CLOUDY    51  45  79 NW18G25   30.13R
MAHNOMEN       CLOUDY    47  45  90 NW8       30.17R
$$
MNZ006-009>011-018-025>026-251200-
   North Central Minnesota

CITY           SKY/WX    TMP DP  RH WIND       PRES   REMARKS
BAUDETTE       CLOUDY    50  48  93 N6        30.12R
FLAG ISLAND    CLOUDY    54  48  82 NW14      30.12R
INTL FALLS     LGT RAIN  51  49  92 N13       30.07R
WASKISH        RAIN      48  46  93 N10G16    30.12R
BIG FORK       HVY RAIN  52  48  87 NW5       30.07R
LONGVILLE      LGT RAIN  52  52 100 NW8       30.08R
GRAND RAPIDS   CLOUDY    53  51  93 NW9       30.07R
CRANE LAKE     DRIZZLE   52  50  93 N3        30.05R
ORR            DRIZZLE   52  46  82 NW3       30.02R
COOK           DRIZZLE   52  52 100 CALM      30.04R
WALKER         DRIZZLE   49  48  95 NW9       30.11R
$$
MNZ012-019>021-037-251200-
   Northeast Minnesota

CITY           SKY/WX    TMP DP  RH WIND       PRES   REMARKS
DULUTH         CLOUDY    52  51  97 NW5       30.01R
ELY            CLOUDY    52  52 100 CALM      30.01R
HIBBING        CLOUDY    52  51  97 NW6       30.03R
EVELETH        CLOUDY    54  49  83 NW5       30.03R
DULUTH HARBOR    N/A     57  54  88 NW8       30.02R
TWO HARBORS    CLOUDY    57  52  82 CALM      29.99R
SILVER BAY     CLOUDY    55  52  88 CALM      29.98R
GRAND MARAIS     N/A     57  51  80 N7        29.96R
G MARAIS ARPRT CLOUDY    50  46  87 N5        29.99R
$$
MNZ029>031-032-039>041-046>048-054>057-064-251200-
   West Central Minnesota

CITY           SKY/WX    TMP DP  RH WIND       PRES   REMARKS
FERGUS FALLS   CLEAR     45  43  93 NW9       30.19R
WHEATON        CLEAR     48  41  76 W9        30.24R
MORRIS         CLEAR     48  43  81 NW10      30.19R
ALEXANDRIA     MOCLDY    50  45  83 NW17      30.17R
ELBOW LAKE     FAIR      46  43  88 W14       30.20R
WADENA         CLOUDY    48  46  93 NW10G17   30.14R
GLENWOOD       CLOUDY    50  45  81 W14G23    30.17R
APPLETON       CLEAR     48  43  81 W8        30.21R
BENSON         PTCLDY    48  45  87 NW10      30.21R
ORTONVILLE     CLEAR     52  41  66 NW13      30.22R
MADISON        CLEAR     50  43  76 NW12      30.22R
WILLMAR        CLOUDY    52  46  82 NW10G18   30.18R
$$
MNZ033>034-036-042>043-049>051-058-059-251200-
   Central Minnesota

CITY           SKY/WX    TMP DP  RH WIND       PRES   REMARKS
ST CLOUD       CLOUDY    51  50  96 W12G18    30.11R
SAUK CENTRE    CLOUDY    51  47  89 NW12G17   30.14R
PAYNESVILLE    CLOUDY    52  46  81 W9G16     30.15R
AITKIN         CLOUDY    52  50  93 W5        30.05R
PINE RIVER     RAIN      50  50 100 NW10      30.13R
BRAINERD       LGT RAIN  52  49  89 NW18      30.09R
STAPLES        CLOUDY    50  46  87 NW14      30.12R
LONG PRAIRIE   CLOUDY    50  46  87 W13G18    30.14R
LITTLE FALLS   CLOUDY    52  46  82 W9        30.11R
LITCHFIELD     CLOUDY    54  48  82 NW15G21   30.14R
BUFFALO        CLOUDY    53  47  79 W12G18    30.12S
MAPLE LAKE     CLOUDY    54  49  85 W8G18     30.12R
HUTCHINSON     CLOUDY    53  49  86 W12       30.15R
$$
MNZ037-044-045-052-053-251200-
   East Central Minnesota

CITY           SKY/WX    TMP DP  RH WIND       PRES   REMARKS
PRINCETON      CLOUDY    54  50  87 W12       30.10R
MORA           CLOUDY    50  46  87 W7        30.08R
CAMBRIDGE        N/A     55  45  67 W7        30.07R
RUSH CITY      CLOUDY    52  48  87 W8        30.07R
MOOSE LAKE     RAIN      52  50  93 W3        30.02R
HINCKLEY       CLOUDY    52  52 100 W3        30.06R
CLOQUET        DRIZZLE   52  48  87 NW5       30.03R
MCGREGOR       CLOUDY    54  52  94 W6        30.05R
$$
MNZ071>073-080-081-089-090-097-098-251200-
   Southwest Minnesota

CITY           SKY/WX    TMP DP  RH WIND       PRES   REMARKS
MONTEVIDEO     CLEAR     48  43  81 NW7       30.21R
GRANITE FALLS  CLEAR     49  45  84 W9        30.21S
CANBY          CLEAR     49  41  73 CALM      30.24R
MARSHALL       CLEAR     48  42  80 NW14      30.22R
REDWOOD FALLS  PTCLDY    51  42  71 NW12G23   30.17R
OLIVIA         MOCLDY    50  43  76 NW10G23   30.16R
PIPESTONE      CLEAR     48  39  71 NW6       30.25R
WINDOM         PTCLDY    50  43  76 NW13G18   30.20R
WORTHINGTON    CLEAR     47  44  90 W9        30.24R
JACKSON        CLEAR     50  43  76 NW16G24   30.21R
TRACY          CLEAR     49  44  81 NW8       30.22R
SLAYTON        CLEAR     47  42  85 NW10      30.23R
$$
MNZ065>067-074>077-082>085-091>093-251200-
   South Central Minnesota

CITY           SKY/WX    TMP DP  RH WIND       PRES   REMARKS
MANKATO        CLOUDY    52  46  80 W17       30.15R
NEW ULM        CLOUDY    52  43  71 NW18G24   30.16R
ST JAMES       CLOUDY    54  45  71 NW12      30.18R
FAIRMONT       CLOUDY    53  45  74 NW16G22   30.18R
GLENCOE        CLOUDY    54  50  86 NW12G18   30.13R
FARIBAULT      CLOUDY    54  48  82 NW8       30.12R
OWATONNA       CLOUDY    54  46  76 W13       30.13R
WASECA         CLOUDY    52  45  76 W10       30.14R
ALBERT LEA     CLOUDY    52  46  82 NW8       30.14R
$$
MNZ078>079-086>088-094>096-251200-
   Southeast Minnesota

CITY           SKY/WX    TMP DP  RH WIND       PRES   REMARKS
ROCHESTER      CLOUDY    50  48  93 W9        30.11R
RED WING       CLOUDY    55  48  76 W5        30.08R
STANTON        CLOUDY    55  48  78 W13       30.10R
DODGE CENTER   MOCLDY    50  46  87 W8        30.12R
WINONA         CLOUDY    54  46  76 NW6       30.09R
AUSTIN         CLEAR     52  45  76 W10       30.12R
PRESTON        MOCLDY    49  46  88 W10       30.12R
$$
ABBREVIATIONS USED IN REMARKS
   TC - TEMPERATURES IN CELSIUS
  WCI - WIND CHILL INDEX
   HX - HEAT INDEX
  VSB - VISIBILITY
$$




USA.gov is the U.S. government's official web portal to all federal, state and local government web resources and services.